User: anonymous   Login
Location: Unspecified
(0.0000°N, 0.0000°E)
Time: 00:05:22
(UTC+00:00)
Language:

PCSat - Orbit

View from above orbital plane
View from above orbital plane
View from above satellite
View from above satellite

Ground track
Ground track

The orbit data is extracted from the following two-line orbital elements,

1 26931U 01043C   17172.86213739 -.00000038 +00000-0 +17070-4 0  9997
2 26931 067.0520 079.1351 0007790 264.8863 095.1349 14.30464010820946
Epoch (UTC): 21 June 2017 20:41:28
Eccentricity: 0.0007790
inclination: 67.0520°
perigee height: 784 km
apogee height: 796 km
right ascension of ascending node: 79.1351°
argument of perigee: 264.8863°
revolutions per day: 14.30464010
mean anomaly at epoch: 95.1349°
orbit number at epoch: 82094

The dashed part of the orbit path shows where the satellite is in the earth's shadow,  

DLR